RH
21 32 57 81 92 94 100 100 100 98 100 100 100 100 100 100 100 100 92 59 52 56 54 51 54 64 67
27 26 25 24 22 21 21 22 26 44 90 100 100 100 98 100 100 100 100 100 100 84 62 45 42 40 41
32 31 31 34 38 39 41 40 32 29 29 26 28 51 85 98 98 100 100 100 98 100 100 100 94 70 48
68 51 42 39 37 41 45 50 51 41 30 30 29 28 27 26 47 82 95 99 100 100 100 100 100 100 100
63 76 85 88 79 65 61 65 67 60 50 31 24 21 20 20 21 20 26 54 82 91 100 100 100 100 100
54 51 50 54 60 67 76 79 72 68 57 49 39 31 27 24 19 15 15 17 17 38 69 82 96 100 100
22 26 28 35 47 53 54 51 48 53 48 39 39 32 29 26 23 17 14 12 11 13 14 22 48 68 76
36 36 38 31 27 25 28 38 46 48 48 38 35 29 25 21 17 14 13 12 11 9 8 9 11 12 23
20 27 38 47 49 43 34 26 22 22 24 25 22 20 15 12 10 9 8 7 7 7 6 6 7 7 8
68 100 100 79 60 49 42 35 31 26 28 23 18 17 16 18 17 15 13 9 7 6 5 4 4 5 5
100 100 100 81 61 59 65 60 48 38 43 37 34 34 29 28 25 22 18 16 12 11 10 9 7 5 4
100 100 100 100 100 100 90 70 60 54 52 45 38 36 33 41 69 84 77 61 40 33 32 32 29 19 11
100 100 100 100 100 100 88 78 63 58 47 50 83 98 94 98 100 98 98 92 82 77 73 68 64 59 54
93 94 91 84 76 67 64 63 54 95 100 100 98 95 99 97 81 88 90 88 79 74 80 81 79 74 64
79 90 92 79 61 70 94 100 100 100 100 96 100 100 98 91 93 98 100 99 88 87 84 80 77 70 64
77 93 100 100 100 100 100 100 100 100 93 97 100 100 100 98 83 74 74 73 72 88 99 100 99 97 75
97 100 100 100 100 100 100 100 100 89 99 100 100 100 100 100 100 100 85 84 83 90 92 87 67 71 93
Wind_Speed
45 44 43 44 44 44 44 43 44 48 51 53 53 54 55 56 58 60 63 65 67 68 69 69 69 69 69
47 47 46 46 45 44 43 43 43 43 44 44 46 50 55 55 56 59 62 63 65 67 68 70 71 71 71
56 54 54 55 52 51 49 48 47 47 47 46 46 47 47 49 54 57 57 60 62 65 68 69 70 71 72
64 62 61 63 62 59 58 58 56 53 52 53 54 53 52 52 53 53 57 58 59 61 64 67 71 73 73
70 71 68 68 69 68 66 64 63 61 59 57 56 56 58 60 60 60 60 59 59 60 62 64 66 69 73
80 79 76 75 73 72 71 70 67 66 63 61 62 61 63 64 65 67 67 66 66 66 66 66 67 67 68
83 83 82 81 81 79 76 75 71 69 70 65 67 65 67 70 70 70 71 73 73 72 72 73 73 72 72
81 78 76 74 75 75 77 77 75 73 74 70 70 69 72 71 71 71 73 73 75 75 75 75 76 77 79
69 69 67 64 62 62 60 62 64 62 62 70 67 67 66 65 65 66 68 70 71 74 76 77 77 78 79
43 44 45 45 46 49 50 49 50 48 47 51 52 53 52 52 52 53 56 60 60 62 64 69 73 75 77
33 37 37 37 37 37 39 40 38 35 38 41 41 43 45 43 44 45 47 50 50 51 52 55 60 65 68
27 30 31 31 34 35 35 35 34 33 36 39 36 35 33 30 29 32 35 37 37 37 38 40 44 49 55
26 27 28 30 31 31 31 32 34 32 28 22 20 22 25 27 29 31 33 34 33 33 34 35 37 38 39
22 21 22 24 25 27 25 24 17 14 15 16 16 17 20 22 22 23 23 24 27 27 29 31 33 35 38
19 16 15 13 11 9 9 10 12 12 11 9 12 11 12 14 20 23 24 21 21 19 20 22 23 23 26
10 8 7 7 7 8 6 5 6 6 7 10 13 11 10 8 7 6 9 11 14 15 17 21 23 24 24
11 10 8 6 4 3 1 0 3 5 9 10 10 8 8 9 9 10 10 10 12 11 11 9 9 9 11
Wind_Direction
288 287 285 283 282 282 281 281 277 272 269 266 261 257 255 254 253 252 249 247 246 244 243 243 243 244 245
283 282 282 281 279 278 278 278 279 279 277 273 270 265 260 256 251 251 250 248 246 246 245 245 243 243 243
280 276 276 277 277 276 275 274 274 275 275 275 274 272 268 264 260 254 249 249 249 247 246 244 244 244 243
280 277 274 273 273 272 273 274 273 270 270 271 271 270 270 269 265 261 259 254 248 247 248 247 246 244 244
280 277 275 273 272 271 270 270 271 272 269 267 268 270 271 269 267 264 261 258 257 254 248 246 246 246 245
279 276 275 273 271 270 269 269 268 269 267 267 267 267 269 270 269 267 264 260 258 255 253 251 249 246 244
278 276 274 271 269 268 268 267 267 268 267 265 267 268 269 271 272 270 265 262 260 257 254 252 251 250 248
280 277 274 273 273 272 270 268 267 268 270 269 270 270 270 271 269 267 265 262 260 259 258 256 253 251 251
278 275 273 271 271 271 271 271 272 272 273 271 271 271 271 270 269 267 265 262 259 257 258 258 257 254 252
281 275 271 267 264 267 270 271 272 269 268 267 268 269 267 267 265 263 262 261 259 258 255 254 254 254 253
286 280 274 271 269 269 272 273 271 269 267 267 268 269 270 268 268 266 262 260 258 255 254 252 252 252 252
285 279 270 267 268 271 272 274 276 276 275 277 277 272 267 262 258 257 257 259 258 256 253 251 250 250 250
286 280 275 274 273 273 274 277 279 280 277 269 264 264 266 264 260 259 257 258 257 255 254 252 251 251 251
305 295 287 281 279 279 278 276 273 267 272 273 274 274 270 260 258 256 258 265 264 257 253 252 253 255 255
311 305 298 291 284 277 268 268 271 268 267 278 291 297 285 269 257 253 254 257 260 256 253 253 250 254 245
346 347 333 315 297 288 281 263 251 255 275 286 294 292 281 277 271 258 246 239 235 247 263 263 262 259 248
341 343 347 354 355 344 117 189 307 268 295 302 303 296 283 271 268 267 254 251 252 261 261 257 240 221 224